This is the latest recevied weather packets stored in our database for station/object F4GCF-13. If no packets are shown the sender has not sent any weather packets the latest 1 day(s).
| Time | Temp. | Humidity | Pressure | Rain* | Wind** | Luminosity | Snow |
|---|---|---|---|---|---|---|---|
| 1778102920 | 12.78° C | 73% | 1016 hPa | 0 mm | - | - | - |
| 1778100822 | 12.78° C | 73% | 1016 hPa | 0 mm | - | - | - |
| 1778098423 | 12.78° C | 71% | 1015 hPa | 0 mm | - | - | - |
| 1778096023 | 13.33° C | 69% | 1016 hPa | 0 mm | - | - | - |
| 1778095721 | 13.33° C | 69% | 1016 hPa | 0 mm | - | - | - |
| 1778093919 | 13.33° C | 68% | 1015 hPa | 0 mm | - | - | - |
| 1778093024 | 13.89° C | 68% | 1015 hPa | 0 mm | - | - | - |
| 1778092771 | 13.89° C | 68% | 1015 hPa | 0 mm | - | - | - |
| 1778092720 | 13.89° C | 68% | 1015 hPa | 0 mm | - | - | - |
| 1778092420 | 13.89° C | 67% | 1015 hPa | 0 mm | - | - | - |
| 1778092121 | 13.89° C | 67% | 1015 hPa | 0 mm | - | - | - |
| 1778089719 | 14.44° C | 66% | 1015 hPa | 0 mm | - | - | - |
| 1778089118 | 15° C | 65% | 1015 hPa | 0 mm | - | - | - |
| 1778088219 | 15.56° C | 68% | 1015 hPa | 0 mm | - | - | - |
| 1778087019 | 15° C | 70% | 1014 hPa | 0 mm | - | - | - |
| 1778086118 | 15.56° C | 71% | 1014 hPa | 0 mm | - | - | - |
| 1778085818 | 15.56° C | 73% | 1014 hPa | 0 mm | - | - | - |
| 1778085549 | 15° C | 73% | 1014 hPa | 0 mm | - | - | - |
| 1778085217 | 15° C | 73% | 1014 hPa | 0 mm | - | - | - |
| 1778084318 | 15° C | 74% | 1014 hPa | 0 mm | - | - | - |
| 1778083420 | 15° C | 73% | 1014 hPa | 0 mm | - | - | - |
| 1778083152 | 15° C | 72% | 1014 hPa | 0 mm | - | - | - |
| 1778081618 | 16.11° C | 71% | 1014 hPa | 0 mm | - | - | - |
| 1778081318 | 16.11° C | 71% | 1014 hPa | 0 mm | - | - | - |
| 1778081019 | 16.11° C | 72% | 1014 hPa | 0 mm | - | - | - |
* Rain latest hour (hover to see other rain measurements)
** Current wind speed in m/s (hover to see current wind gust speed)